Home > Weather > El Monte > Past weeks

Flag for USA Past Weather in El Monte, California, USA — Yesterday and Last 2 Weeks

Now
82 °F

Sunny.


Feels Like: 83 °F
Forecast: 67 / 92 °F
Wind: 8 mph from Southwest

Location: Fullerton Municipal Airport

Current Time: Jul 23, 2016 at 6:18:52 PM

Latest Report: Jul 23, 2016 at 5:53 PM


Visibility: 10 mi

Pressure: 29.78 "Hg

Humidity: 51%

Dew Point: 62 °F

Location of El MonteLocation

Past Weather in El Monte — Graph

°F

El Monte Temperature Yesterday

Maximum temperature yesterday: 103 °F (at 2:53 PM)
Minimum temperature yesterday: 70 °F (at 4:53 AM)
Average temperature yesterday: 84 °F

High & Low Weather Summary for the Past Weeks

 TemperatureHumidityPressure
High103 °F (Jul 22, 2:53 PM)85% (Jul 10, 3:53 AM)30.03 "Hg (Jul 10, 3:53 AM)
Low65 °F (Jul 15, 3:53 AM)13% (Jul 22, 3:53 PM)29.78 "Hg (Jul 23, 12:53 PM)
Average76 °F59%29.92 "Hg
* Reported Jul 8 4:53 PM — Jul 23 4:53 PM, El Monte, Weather by CustomWeather, © 2016

Note: Actual official high and low records may vary slightly from our data, if they occured in-between our weather recording intervals... More about our weather records

Advertising

El Monte Weather History for the Previous 24 Hours

Scroll right to see more
 ConditionsComfort  
Time TempWeatherWind HumidityBarometerVisibility
4:53 PM
Sat, Jul 23
84 °FSunny.9 mph48%29.79 "Hg10 mi
3:53 PM85 °FSunny.9 mph45%29.79 "Hg10 mi
2:53 PM87 °FSunny.10 mph43%29.79 "Hg10 mi
1:53 PM87 °FSunny.9 mph43%29.79 "Hg10 mi
12:53 PM92 °FSunny.9 mph36%29.78 "Hg10 mi
11:53 AM95 °FSunny.8 mph32%29.79 "Hg10 mi
10:53 AM91 °FSunny.3 mph36%29.79 "Hg10 mi
9:53 AM87 °FSunny.No wind36%29.80 "Hg10 mi
8:53 AM82 °FSunny.No wind46%29.81 "Hg10 mi
7:53 AM76 °FSunny.No wind62%29.80 "Hg10 mi
6:53 AM72 °FClear.No wind71%29.80 "Hg10 mi
5:53 AM71 °FClear.No wind73%29.80 "Hg10 mi
4:53 AM71 °FClear.No wind73%29.79 "Hg10 mi
3:53 AM72 °FClear.No wind71%29.79 "Hg10 mi
2:53 AM72 °FClear.No wind73%29.80 "Hg10 mi
1:53 AM73 °FClear.5 mph71%29.80 "Hg10 mi
12:53 AM74 °FClear.6 mph69%29.81 "Hg10 mi
11:53 PM
Fri, Jul 22
78 °FClear.No wind60%29.81 "Hg10 mi
10:53 PM80 °FClear.3 mph56%29.81 "Hg10 mi
9:53 PM82 °FPassing clouds.No wind38%29.81 "Hg10 mi
8:53 PM84 °FPartly sunny.3 mph35%29.80 "Hg10 mi
7:53 PM88 °FSunny.7 mph28%29.80 "Hg10 mi
6:53 PM92 °FSunny.5 mph24%29.80 "Hg10 mi
Weather by CustomWeather, © 2016

See weather overviewHow to use our weather pages